This is the latest recevied weather packets stored in our database for station/object W8RD. If no packets are shown the sender has not sent any weather packets the latest 10 day(s).
| Time | Temp. | Humidity | Pressure | Rain* | Wind** | Luminosity | Snow |
|---|---|---|---|---|---|---|---|
| 1777654881 | 29.44° C | 68% | 1014.4 hPa | 0 mm | - | 861 W/m² | - |
| 1777654275 | 29.44° C | 67% | 1014.5 hPa | 0 mm | - | 232 W/m² | - |
| 1777653670 | 28.89° C | 69% | 1014.5 hPa | 0 mm | - | 177 W/m² | - |
| 1777653070 | 28.89° C | 70% | 1014.5 hPa | 0 mm | - | 109 W/m² | - |
| 1777652469 | 28.89° C | 71% | 1014.6 hPa | 0 mm | - | 133 W/m² | - |
| 1777651868 | 28.89° C | 71% | 1014.7 hPa | 0 mm | - | 199 W/m² | - |
| 1777651268 | 28.33° C | 73% | 1014.7 hPa | 0 mm | - | 186 W/m² | - |
| 1777650667 | 27.78° C | 75% | 1014.8 hPa | 0 mm | - | 111 W/m² | - |
| 1777650067 | 27.78° C | 75% | 1014.5 hPa | 0 mm | - | 132 W/m² | - |
| 1777649468 | 27.22° C | 74% | 1014.8 hPa | 0 mm | - | 58 W/m² | - |
| 1777648867 | 27.78° C | 75% | 1014.8 hPa | 0 mm | - | 54 W/m² | - |
| 1777648266 | 26.67° C | 78% | 1014.7 hPa | 0 mm | - | 55 W/m² | - |
| 1777647664 | 27.22° C | 77% | 1014.6 hPa | 0 mm | - | 44 W/m² | - |
| 1777647064 | 27.22° C | 76% | 1014.6 hPa | 0 mm | - | 43 W/m² | - |
| 1777646460 | 26.67° C | 77% | 1014.5 hPa | 0 mm | - | 40 W/m² | - |
| 1777645860 | 26.67° C | 77% | 1014.4 hPa | 0 mm | - | 36 W/m² | - |
| 1777645259 | 26.67° C | 77% | 1014.1 hPa | 0 mm | - | 35 W/m² | - |
| 1777644659 | 26.67° C | 79% | 1014.2 hPa | 0 mm | - | 34 W/m² | - |
| 1777643451 | 26.67° C | 79% | 1014.2 hPa | 0 mm | - | 32 W/m² | - |
| 1777642850 | 26.11° C | 79% | 1013.9 hPa | 0 mm | - | 135 W/m² | - |
| 1777642249 | 26.11° C | 79% | 1013.9 hPa | 0 mm | - | 29 W/m² | - |
| 1777641648 | 26.11° C | 79% | 1013.9 hPa | 0 mm | - | 28 W/m² | - |
| 1777641045 | 26.11° C | 80% | 1014 hPa | 0 mm | - | 28 W/m² | - |
| 1777639844 | 25.56° C | 82% | 1014 hPa | 0 mm | - | 27 W/m² | - |
| 1777639238 | 25.56° C | 83% | 1013.8 hPa | 0 mm | - | 26 W/m² | - |
* Rain latest hour (hover to see other rain measurements)
** Current wind speed in m/s (hover to see current wind gust speed)